Regional Weather Roundup
Issued by NWS Goodland, KS

Home | Current Version | Previous Version | Graphics & Text | Print | Product List | Glossary On
Versions: 1 2 3 4 5 6 7 8 9 10 11 12 13 14 15 16 17 18 19 20 21 22 23 24 25 26 27 28 29 30 31 32 33 34 35 36 37 38 39 40 41 42 43 44 45 46 47 48 49 50
000
ASUS43 KGLD 021408
RWRGLD

GOODLAND FORECAST AREA HOURLY WEATHER ROUNDUP
NATIONAL WEATHER SERVICE GOODLAND KS
800 AM MDT THU JUL 02 2015

...OFFICIAL OBSERVATIONS...

CITY           SKY/WX    TMP DP  RH WIND       PRES   REMARKS
GOODLAND KS    SUNNY     67  56  67 NE16G23   30.10S
HILL CITY KS   LGT RAIN  67  64  90 N14       30.01S
IMPERIAL NEB   CLOUDY    63  60  90 SW7       30.06F
MCCOOK NEB     CLOUDY    66  60  81 CALM      30.03S
AKRON CO       TSTM      59  56  89 SE8       30.16F FOG
BURLINGTON CO  SUNNY     66  55  67 NE18      30.14S
LIMON CO       PTSUNNY   59  52  77 NE14      30.26R
$$

...UNOFFICIAL OBSERVATIONS...

CITY           SKY/WX    TMP DP  RH WIND       PRES   REMARKS
COLBY KS       MOSUNNY   66  61  82 N12       30.08R
GOVE KS          N/A     70  32  24 MISG        N/A
NORTON KS      MOSUNNY   68  61  77 N14G22    29.98F
SHARON SPRINGS   N/A     64  60  87 NE12G20     N/A
KIT CARSON CO    N/A     63  56  79 MISG        N/A
$$



USA.gov is the U.S. government's official web portal to all federal, state and local government web resources and services.